Location: Newark
(47.5000°N, 4.6167°E)
Time: 09:25:36
(UTC+00:00)

Tiangong - Visible Passes

Search period start: 26 September 2021 00:00
Search period end: 06 October 2021 00:00
Orbit: 382 x 385 km, 41.5° (Epoch: 26 September)

Date Brightness Start Highest point End Pass type
(mag) Time Alt. Az. Time Alt. Az. Time Alt. Az.
27 Sep 3.6 04:36:17 10° SSW 04:38:10 15° SSE 04:40:04 10° ESE visible
28 Sep 3.9 03:38:24 10° SSE 03:38:30 10° SSE 03:39:07 10° SE visible
29 Sep 3.1 04:13:38 16° SSW 04:14:53 19° SSE 04:17:17 10° ESE visible
30 Sep 4.0 03:16:36 12° SE 03:16:36 12° SE 03:17:04 10° ESE visible
30 Sep 2.6 04:48:48 11° SW 04:51:25 26° S 04:54:08 10° ESE visible
01 Oct 2.7 03:51:45 24° SSE 03:51:45 24° SSE 03:54:14 10° ESE visible
02 Oct 2.5 04:26:53 20° SW 04:28:09 27° S 04:30:54 10° ESE visible
03 Oct 3.4 03:29:50 18° SE 03:29:50 18° SE 03:31:04 10° ESE visible
03 Oct 2.8 05:02:11 10° WSW 05:04:40 21° SSW 05:07:10 10° SE visible
04 Oct 2.5 04:05:00 25° S 04:05:00 25° S 04:07:32 10° SE visible
05 Oct 3.0 04:40:13 14° SW 04:41:19 17° SSW 04:43:26 10° SSE visible
